Time,TemperatureF,DewpointF,PressureIn,WindDirection,WindDirectionDegrees,WindSpeedMPH,WindSpeedGustMPH,Humidity,HourlyPrecipIn,Conditions,Clouds,dailyrainin,SoftwareType,DateUTC
2013-04-07 00:02:00,49.0,41.0,29.83,WSW,253,0.0,0.0,75,0.00,,,0.00,,2013-04-07 05:02:00,
2013-04-07 00:12:00,49.0,41.0,29.83,WSW,253,0.0,0.0,75,0.00,,,0.00,,2013-04-07 05:12:00,
2013-04-07 00:22:00,50.0,41.0,29.83,WSW,252,0.0,0.0,72,0.00,,,0.00,,2013-04-07 05:22:00,
2013-04-07 00:33:00,49.0,41.0,29.83,WSW,252,0.0,0.0,74,0.00,,,0.00,,2013-04-07 05:33:00,
2013-04-07 00:42:00,49.0,41.0,29.83,WSW,252,0.0,0.0,74,0.00,,,0.00,,2013-04-07 05:42:00,
2013-04-07 00:52:00,48.0,40.0,29.83,WSW,252,0.0,0.0,75,0.00,,,0.00,,2013-04-07 05:52:00,
2013-04-07 01:02:00,48.0,40.0,29.83,WSW,252,0.0,0.0,75,0.00,,,0.00,,2013-04-07 06:02:00,
2013-04-07 01:12:00,48.0,40.0,29.83,WSW,252,0.0,0.0,75,0.00,,,0.00,,2013-04-07 06:12:00,
2013-04-07 01:22:00,47.0,40.0,29.83,WSW,252,0.0,0.0,76,0.00,,,0.00,,2013-04-07 06:22:00,
2013-04-07 01:32:00,46.0,40.0,29.84,WSW,252,0.0,0.0,79,0.00,,,0.00,,2013-04-07 06:32:00,
2013-04-07 01:42:00,46.0,40.0,29.84,WSW,252,0.0,0.0,79,0.00,,,0.00,,2013-04-07 06:42:00,
2013-04-07 01:52:00,46.0,40.0,29.84,WSW,252,0.0,0.0,80,0.00,,,0.00,,2013-04-07 06:52:00,
2013-04-07 02:02:00,45.0,39.0,29.84,WSW,251,0.0,0.0,80,0.00,,,0.00,,2013-04-07 07:02:00,
2013-04-07 02:12:00,45.0,39.0,29.84,WSW,251,0.0,0.0,80,0.00,,,0.00,,2013-04-07 07:12:00,
2013-04-07 02:22:00,46.0,41.0,29.84,WSW,251,0.0,0.0,81,0.00,,,0.00,,2013-04-07 07:22:00,
2013-04-07 02:32:00,47.0,41.0,29.84,WSW,251,0.0,0.0,79,0.00,,,0.00,,2013-04-07 07:32:00,
2013-04-07 02:42:00,47.0,41.0,29.84,WSW,251,0.0,0.0,79,0.00,,,0.00,,2013-04-07 07:42:00,
2013-04-07 02:52:00,47.0,41.0,29.84,WSW,251,0.0,0.0,79,0.00,,,0.00,,2013-04-07 07:52:00,
2013-04-07 03:02:00,47.0,41.0,29.84,WSW,251,0.0,0.0,78,0.00,,,0.00,,2013-04-07 08:02:00,
2013-04-07 03:12:00,47.0,41.0,29.84,WSW,251,0.0,0.0,78,0.00,,,0.00,,2013-04-07 08:12:00,
2013-04-07 03:22:00,48.0,42.0,29.84,WSW,250,0.0,0.0,80,0.00,,,0.00,,2013-04-07 08:22:00,
2013-04-07 03:32:00,49.0,43.0,29.83,WSW,250,0.0,0.0,79,0.00,,,0.00,,2013-04-07 08:32:00,
2013-04-07 03:42:00,49.0,43.0,29.83,WSW,250,0.0,0.0,79,0.00,,,0.00,,2013-04-07 08:42:00,
2013-04-07 03:52:00,48.0,42.0,29.82,WSW,250,0.0,0.0,80,0.00,,,0.00,,2013-04-07 08:52:00,
2013-04-07 04:02:00,48.0,42.0,29.82,WSW,250,0.0,0.0,80,0.00,,,0.00,,2013-04-07 09:02:00,
2013-04-07 04:12:00,48.0,42.0,29.82,WSW,250,0.0,0.0,80,0.00,,,0.00,,2013-04-07 09:12:00,
2013-04-07 04:22:00,48.0,42.0,29.82,WSW,249,0.0,0.0,81,0.00,,,0.00,,2013-04-07 09:22:00,
2013-04-07 04:33:00,49.0,42.0,29.81,WSW,249,0.0,0.0,78,0.00,,,0.00,,2013-04-07 09:33:00,
2013-04-07 04:43:00,49.0,42.0,29.81,WSW,249,0.0,0.0,78,0.00,,,0.00,,2013-04-07 09:43:00,
2013-04-07 04:53:00,49.0,42.0,29.81,WSW,249,0.0,1.0,78,0.00,,,0.00,,2013-04-07 09:53:00,
2013-04-07 05:03:00,48.0,41.0,29.81,WSW,249,0.0,0.0,78,0.00,,,0.00,,2013-04-07 10:03:00,
2013-04-07 05:13:00,48.0,41.0,29.81,WSW,249,0.0,0.0,78,0.00,,,0.00,,2013-04-07 10:13:00,
2013-04-07 05:22:00,48.0,42.0,29.81,WSW,249,0.0,0.0,79,0.00,,,0.00,,2013-04-07 10:22:00,
2013-04-07 05:33:00,49.0,43.0,29.81,WSW,249,0.0,1.0,79,0.00,,,0.00,,2013-04-07 10:33:00,
2013-04-07 05:43:00,49.0,43.0,29.81,WSW,249,0.0,1.0,79,0.00,,,0.00,,2013-04-07 10:43:00,
2013-04-07 05:53:00,52.0,44.0,29.81,WSW,248,0.0,1.0,74,0.00,,,0.00,,2013-04-07 10:53:00,
2013-04-07 06:03:00,54.0,45.0,29.80,South,176,0.0,1.0,71,0.00,,,0.00,,2013-04-07 11:03:00,
2013-04-07 06:12:00,54.0,45.0,29.80,South,176,0.0,1.0,71,0.00,,,0.00,,2013-04-07 11:12:00,
2013-04-07 06:22:00,54.0,44.0,29.80,SSW,194,1.0,6.0,70,0.00,,,0.00,,2013-04-07 11:22:00,
2013-04-07 06:32:00,55.0,45.0,29.80,South,190,1.0,7.0,68,0.00,,,0.00,,2013-04-07 11:32:00,
2013-04-07 06:42:00,55.0,45.0,29.80,South,190,1.0,7.0,68,0.00,,,0.00,,2013-04-07 11:42:00,
2013-04-07 06:52:00,55.0,45.0,29.80,SSW,200,0.0,1.0,69,0.00,,,0.00,,2013-04-07 11:52:00,
2013-04-07 07:02:00,54.0,45.0,29.80,SSW,193,0.0,1.0,71,0.00,,,0.00,,2013-04-07 12:02:00,
2013-04-07 07:12:00,54.0,45.0,29.80,SSW,193,0.0,1.0,71,0.00,,,0.00,,2013-04-07 12:12:00,
2013-04-07 07:22:00,54.0,45.0,29.81,SSW,199,0.0,1.0,71,0.00,,,0.00,,2013-04-07 12:22:00,
2013-04-07 07:34:00,54.0,44.0,29.81,South,183,0.0,1.0,70,0.00,,,0.00,,2013-04-07 12:34:00,
2013-04-07 07:43:00,54.0,44.0,29.81,South,183,0.0,1.0,70,0.00,,,0.00,,2013-04-07 12:43:00,
2013-04-07 07:53:00,54.0,46.0,29.80,South,173,5.0,6.0,73,0.00,,,0.00,,2013-04-07 12:53:00,
2013-04-07 08:03:00,57.0,45.0,29.81,SSW,196,4.0,12.0,64,0.00,,,0.00,,2013-04-07 13:03:00,
2013-04-07 08:13:00,57.0,45.0,29.81,SSW,196,4.0,12.0,64,0.00,,,0.00,,2013-04-07 13:13:00,
2013-04-07 08:22:00,58.0,45.0,29.81,SW,223,0.0,5.0,63,0.00,,,0.00,,2013-04-07 13:22:00,
2013-04-07 08:32:00,60.0,45.0,29.82,SSE,155,0.0,4.0,57,0.00,,,0.00,,2013-04-07 13:32:00,
2013-04-07 08:42:00,60.0,45.0,29.82,SSE,155,0.0,4.0,57,0.00,,,0.00,,2013-04-07 13:42:00,
2013-04-07 08:52:00,63.0,42.0,29.82,ESE,123,0.0,1.0,47,0.00,,,0.00,,2013-04-07 13:52:00,
2013-04-07 09:02:00,63.0,44.0,29.81,SSE,158,0.0,4.0,50,0.00,,,0.00,,2013-04-07 14:02:00,
2013-04-07 09:12:00,63.0,44.0,29.81,SSE,158,0.0,4.0,50,0.00,,,0.00,,2013-04-07 14:12:00,
2013-04-07 09:23:00,64.0,44.0,29.80,SSE,158,0.0,1.0,49,0.00,,,0.00,,2013-04-07 14:23:00,
2013-04-07 09:33:00,64.0,46.0,29.81,SSE,157,0.0,0.0,52,0.00,,,0.00,,2013-04-07 14:33:00,
2013-04-07 09:43:00,64.0,46.0,29.81,SSE,157,0.0,0.0,52,0.00,,,0.00,,2013-04-07 14:43:00,
2013-04-07 09:53:00,64.0,47.0,29.81,SSE,158,0.0,0.0,55,0.00,,,0.00,,2013-04-07 14:53:00,
2013-04-07 10:03:00,64.0,48.0,29.81,SSE,157,0.0,0.0,56,0.00,,,0.00,,2013-04-07 15:03:00,
2013-04-07 10:12:00,64.0,48.0,29.81,SSE,158,0.0,3.0,56,0.00,,,0.00,,2013-04-07 15:12:00,
2013-04-07 10:22:00,64.0,48.0,29.81,SSE,158,0.0,3.0,56,0.00,,,0.00,,2013-04-07 15:22:00,
2013-04-07 10:34:00,66.0,47.0,29.81,SSE,163,3.0,6.0,50,0.00,,,0.00,,2013-04-07 15:34:00,
2013-04-07 10:53:00,66.0,47.0,29.80,South,171,8.0,12.0,51,0.00,,,0.00,,2013-04-07 15:53:00,
2013-04-07 11:04:00,66.0,47.0,29.78,SSE,158,9.0,14.0,51,0.00,,,0.00,,2013-04-07 16:04:00,
2013-04-07 11:13:00,66.0,47.0,29.78,SSE,158,9.0,14.0,51,0.00,,,0.00,,2013-04-07 16:13:00,
2013-04-07 11:24:00,68.0,46.0,29.78,SE,138,12.0,15.0,46,0.00,,,0.00,,2013-04-07 16:24:00,
2013-04-07 11:33:00,68.0,48.0,29.78,SSE,148,8.0,14.0,48,0.00,,,0.00,,2013-04-07 16:33:00,
2013-04-07 11:43:00,68.0,48.0,29.78,SSE,148,8.0,14.0,48,0.00,,,0.00,,2013-04-07 16:43:00,
2013-04-07 11:53:00,69.0,50.0,29.78,SE,144,6.0,14.0,51,0.00,,,0.00,,2013-04-07 16:53:00,
2013-04-07 12:04:00,71.0,49.0,29.78,SSE,162,9.0,16.0,46,0.00,,,0.00,,2013-04-07 17:04:00,
2013-04-07 12:13:00,71.0,49.0,29.78,SSE,162,9.0,16.0,46,0.00,,,0.00,,2013-04-07 17:13:00,
2013-04-07 12:23:00,72.0,50.0,29.78,SSE,159,9.0,15.0,46,0.00,,,0.00,,2013-04-07 17:23:00,
2013-04-07 12:33:00,71.0,51.0,29.78,SSE,163,15.0,20.0,50,0.00,,,0.00,,2013-04-07 17:33:00,
2013-04-07 12:43:00,71.0,51.0,29.78,SSE,163,15.0,20.0,50,0.00,,,0.00,,2013-04-07 17:43:00,
2013-04-07 12:52:00,70.0,52.0,29.78,South,190,12.0,20.0,53,0.00,,,0.00,,2013-04-07 17:52:00,
2013-04-07 13:02:00,68.0,52.0,29.77,SSE,165,17.0,22.0,57,0.00,,,0.00,,2013-04-07 18:02:00,
2013-04-07 13:13:00,68.0,52.0,29.77,SSE,165,17.0,22.0,57,0.00,,,0.00,,2013-04-07 18:13:00,
2013-04-07 13:23:00,67.0,54.0,29.77,South,171,9.0,19.0,62,0.00,,,0.00,,2013-04-07 18:23:00,
2013-04-07 13:33:00,70.0,55.0,29.75,SSE,165,14.0,19.0,58,0.00,,,0.00,,2013-04-07 18:33:00,
2013-04-07 13:43:00,70.0,55.0,29.75,SSE,165,14.0,19.0,58,0.00,,,0.00,,2013-04-07 18:43:00,
2013-04-07 13:52:00,70.0,54.0,29.74,SE,142,12.0,19.0,57,0.00,,,0.00,,2013-04-07 18:52:00,
2013-04-07 14:02:00,70.0,54.0,29.73,SSE,162,14.0,22.0,56,0.00,,,0.00,,2013-04-07 19:02:00,
2013-04-07 14:12:00,70.0,54.0,29.73,SSE,162,14.0,22.0,56,0.00,,,0.00,,2013-04-07 19:12:00,
2013-04-07 14:22:00,72.0,52.0,29.70,SSE,164,15.0,28.0,49,0.00,,,0.00,,2013-04-07 19:22:00,
2013-04-07 14:32:00,72.0,53.0,29.68,SSE,150,18.0,27.0,52,0.00,,,0.00,,2013-04-07 19:32:00,
2013-04-07 14:42:00,72.0,53.0,29.68,SSE,150,18.0,27.0,52,0.00,,,0.00,,2013-04-07 19:42:00,
2013-04-07 14:53:00,72.0,48.0,29.67,SE,146,19.0,27.0,43,0.00,,,0.00,,2013-04-07 19:53:00,
2013-04-07 15:03:00,72.0,51.0,29.66,SSE,149,21.0,29.0,48,0.00,,,0.00,,2013-04-07 20:03:00,
2013-04-07 15:13:00,72.0,51.0,29.66,SSE,149,21.0,29.0,48,0.00,,,0.00,,2013-04-07 20:13:00,
2013-04-07 15:22:00,74.0,52.0,29.65,SE,144,16.0,30.0,46,0.00,,,0.00,,2013-04-07 20:22:00,
2013-04-07 15:32:00,74.0,49.0,29.64,SSE,159,18.0,30.0,41,0.00,,,0.00,,2013-04-07 20:32:00,
2013-04-07 15:43:00,74.0,49.0,29.64,SSE,159,18.0,30.0,41,0.00,,,0.00,,2013-04-07 20:43:00,
2013-04-07 15:52:00,74.0,48.0,29.64,SSE,156,20.0,30.0,40,0.00,,,0.00,,2013-04-07 20:52:00,
2013-04-07 16:03:00,73.0,50.0,29.64,SSE,160,18.0,31.0,44,0.00,,,0.00,,2013-04-07 21:03:00,
2013-04-07 16:13:00,73.0,50.0,29.64,SSE,160,18.0,31.0,44,0.00,,,0.00,,2013-04-07 21:13:00,
2013-04-07 16:22:00,73.0,53.0,29.63,SSE,167,16.0,25.0,50,0.00,,,0.00,,2013-04-07 21:22:00,
2013-04-07 16:34:00,72.0,53.0,29.63,SSE,157,16.0,24.0,52,0.00,,,0.00,,2013-04-07 21:34:00,
2013-04-07 16:43:00,72.0,53.0,29.63,SSE,157,16.0,24.0,52,0.00,,,0.00,,2013-04-07 21:43:00,
2013-04-07 16:53:00,71.0,50.0,29.62,South,183,20.0,25.0,47,0.00,,,0.00,,2013-04-07 21:53:00,
2013-04-07 17:03:00,70.0,55.0,29.62,SSW,205,15.0,34.0,58,0.00,,,0.00,,2013-04-07 22:03:00,
2013-04-07 17:14:00,70.0,55.0,29.62,SSW,205,15.0,34.0,58,0.00,,,0.00,,2013-04-07 22:14:00,
2013-04-07 17:23:00,69.0,52.0,29.62,South,186,19.0,27.0,54,0.00,,,0.00,,2013-04-07 22:23:00,
2013-04-07 17:34:00,69.0,56.0,29.62,SSE,155,14.0,27.0,63,0.00,,,0.00,,2013-04-07 22:34:00,
2013-04-07 17:43:00,69.0,56.0,29.62,SSE,155,14.0,27.0,63,0.00,,,0.00,,2013-04-07 22:43:00,
2013-04-07 17:52:00,68.0,56.0,29.62,South,184,17.0,24.0,66,0.00,,,0.00,,2013-04-07 22:52:00,
2013-04-07 18:03:00,68.0,56.0,29.62,South,171,16.0,26.0,66,0.00,,,0.00,,2013-04-07 23:03:00,
2013-04-07 18:13:00,68.0,56.0,29.62,South,171,16.0,26.0,66,0.00,,,0.00,,2013-04-07 23:13:00,
2013-04-07 18:22:00,67.0,55.0,29.62,South,175,12.0,23.0,66,0.00,,,0.00,,2013-04-07 23:22:00,
2013-04-07 18:32:00,67.0,56.0,29.62,SSW,193,9.0,23.0,68,0.00,,,0.00,,2013-04-07 23:32:00,
2013-04-07 18:43:00,67.0,56.0,29.62,SSW,193,9.0,23.0,68,0.00,,,0.00,,2013-04-07 23:43:00,
2013-04-07 18:52:00,66.0,56.0,29.62,South,178,15.0,22.0,69,0.00,,,0.00,,2013-04-07 23:52:00,
2013-04-07 19:02:00,65.0,56.0,29.61,South,171,14.0,23.0,72,0.00,,,0.00,,2013-04-08 00:02:00,
2013-04-07 19:12:00,65.0,56.0,29.61,South,171,14.0,23.0,72,0.00,,,0.00,,2013-04-08 00:12:00,
2013-04-07 19:22:00,64.0,56.0,29.59,SSE,160,14.0,22.0,76,0.00,,,0.00,,2013-04-08 00:22:00,
2013-04-07 19:32:00,63.0,56.0,29.61,SSE,168,10.0,19.0,79,0.00,,,0.00,,2013-04-08 00:32:00,
2013-04-07 19:42:00,63.0,56.0,29.61,SSE,168,10.0,19.0,79,0.00,,,0.00,,2013-04-08 00:42:00,
2013-04-07 19:52:00,63.0,57.0,29.63,SSE,168,1.0,12.0,80,0.00,,,0.00,,2013-04-08 00:52:00,
2013-04-07 20:02:00,63.0,57.0,29.63,SW,229,4.0,15.0,81,0.00,,,0.00,,2013-04-08 01:02:00,
2013-04-07 20:12:00,63.0,57.0,29.63,SW,229,4.0,15.0,81,0.00,,,0.00,,2013-04-08 01:12:00,
2013-04-07 20:22:00,63.0,57.0,29.62,South,178,11.0,18.0,82,0.00,,,0.00,,2013-04-08 01:22:00,
2013-04-07 20:33:00,62.0,57.0,29.62,SSE,165,7.0,16.0,83,0.00,,,0.00,,2013-04-08 01:33:00,
2013-04-07 20:43:00,62.0,57.0,29.62,SSE,165,7.0,16.0,83,0.00,,,0.00,,2013-04-08 01:43:00,
2013-04-07 20:53:00,62.0,57.0,29.62,South,179,8.0,16.0,83,0.00,,,0.00,,2013-04-08 01:53:00,
2013-04-07 21:02:00,62.0,57.0,29.62,South,178,5.0,13.0,84,0.00,,,0.00,,2013-04-08 02:02:00,
2013-04-07 21:12:00,62.0,57.0,29.62,South,178,5.0,13.0,84,0.00,,,0.00,,2013-04-08 02:12:00,
2013-04-07 21:22:00,62.0,57.0,29.63,South,184,2.0,14.0,85,0.00,,,0.00,,2013-04-08 02:22:00,
2013-04-07 21:33:00,62.0,57.0,29.63,SSW,194,3.0,9.0,85,0.00,,,0.00,,2013-04-08 02:33:00,
2013-04-07 21:46:00,62.0,57.0,29.63,SSW,194,3.0,9.0,85,0.00,,,0.00,,2013-04-08 02:46:00,
2013-04-07 21:53:00,61.0,57.0,29.63,South,191,3.0,13.0,86,0.00,,,0.00,,2013-04-08 02:53:00,
2013-04-07 22:07:00,61.0,57.0,29.64,SE,137,5.0,7.0,86,0.00,,,0.00,,2013-04-08 03:07:00,
2013-04-07 22:15:00,61.0,57.0,29.64,SE,137,5.0,7.0,86,0.00,,,0.00,,2013-04-08 03:15:00,
2013-04-07 22:24:00,61.0,57.0,29.65,South,187,3.0,10.0,87,0.00,,,0.00,,2013-04-08 03:24:00,
2013-04-07 22:47:00,61.0,57.0,29.65,South,183,5.0,11.0,87,0.00,,,0.00,,2013-04-08 03:47:00,
2013-04-07 22:53:00,60.0,56.0,29.66,South,184,0.0,6.0,87,0.00,,,0.00,,2013-04-08 03:53:00,
2013-04-07 23:03:00,60.0,56.0,29.66,SSE,157,0.0,6.0,88,0.00,,,0.00,,2013-04-08 04:03:00,
2013-04-07 23:12:00,60.0,56.0,29.66,SSE,157,0.0,6.0,88,0.00,,,0.00,,2013-04-08 04:12:00,
2013-04-07 23:23:00,60.0,56.0,29.66,South,188,0.0,9.0,88,0.00,,,0.00,,2013-04-08 04:23:00,
2013-04-07 23:33:00,59.0,56.0,29.66,SSW,194,0.0,6.0,89,0.00,,,0.00,,2013-04-08 04:33:00,
2013-04-07 23:44:00,59.0,56.0,29.66,SSW,194,0.0,6.0,89,0.00,,,0.00,,2013-04-08 04:44:00,
2013-04-07 23:52:00,60.0,57.0,29.66,South,179,1.0,5.0,90,0.00,,,0.00,,2013-04-08 04:52:00,